STARLINK-32233, 60434

Orbit data source: Space-Track

STARLINK-32233, 60434 is a payload satellite owned by SpaceX/Seattle (US) in LEO that was launched on Mon, 12 Aug 2024 UTC via an FALCON 9 launch vehicle from the Air Force Eastern Test Range (AFETR). Payload-class satellites include a variety of spacecraft equipped with specific instruments for various scientific and technological missions. These include communications satellites like Starlink; space stations such as the ISS; scientific satellites like the Hubble; Earth observation satellites from companies like Planet Labs, Umbra, and HawkEye 360; GPS; miniature CubeSats for education and research; and military/defense satellites.

Loading next visibility...
Identifier
60434, 2024-144K
Orbit
LEO
Country
Flag of USUS
Related business
Manufacturer
SpaceX/Seattle
Mission
Operational Commercial Communications
Bus & Motor
STARLINK V2M, Unknown motor
Mass
730 kg wet, ~700 kg dry
Launch date (UTC)
2024-08-12 (2 years ago)
Launch vehicle
FALCON 9
Launch site
Air Force Eastern Test Range (AFETR)
Object type
Payload
Rocket body
Debris
Shape & HBR
Box + 2 Pan, 17.7 m
Radar Cross Section
33.884 m², Large (>1 m²)

Expand to show TLE details & history
Last TLE update: 16 hours ago

TLE from 16 hours ago
0 STARLINK-32233
1 60434U 24144K   26171.18657179  .00002182  00000-0  75702-4 0  9991
2 60434  53.1601  99.5038 0001255  96.7155 263.3991 15.34398523105029
Epoch: 2026-06-20T04:28Z
TLE epoch observation values (Epoch: 2026-06-20T04:28:39.802Z)
Latitude
0.00001°
Longitude
123.93316°
Altitude
463.708 km
Speed
7.636 km/s
True Right ascension
06h 38m 00s
True Declination
0° 00' 00"
Sunlit
Object was in daylight at epoch
Visualization orbit readout
Latitude
Unknown
Longitude
Unknown
Altitude
Unknown
Speed
Unknown
Apparent Right ascension
Unknown
Apparent Declination
Unknown
Sunlit
N/A
Visualization observer readout
Local Sidereal Time
07:12:19
Azimuth
Unknown
Elevation
Unknown
Doppler factor
Unknown
Orbital elements
Apogee altitude
463.823 km
Perigee altitude
462.106 km
Semi-major axis
6,841.101 km
Eccentricity
0.00013
Inclination
53.1601°
RAAN
99.5038°
Arg. of periapsis
96.7155°
True anomaly
263.38481°
Mean anomaly
263.3991°
Eccentric anomaly
263.39196°
Mean motion
3.83578 °/min
Orbital period
93.85 mins
BSTAR
0.000075702
Loading maneuver chart data...
Computing Atmospheric mass density...
Loading historical data...
Loading historical data...
Loading historical data...
Loading historical data...
Loading historical data...
Loading historical data...
Loading historical data...

Documentation

Showing up to 5 results
|